This is the latest recevied weather packets stored in our database for station/object N1ICS-1. If no packets are shown the sender has not sent any weather packets the latest 10 day(s).
| Time | Temp. | Humidity | Pressure | Rain* | Wind** | Luminosity | Snow |
|---|---|---|---|---|---|---|---|
| 1777479902 | 14.44° C | 91% | 1012.3 hPa | 0 mm | - | 569 W/m² | - |
| 1777479603 | 14.44° C | 92% | 1012.2 hPa | 0 mm | - | 457 W/m² | - |
| 1777479302 | 14.44° C | 88% | 1012.1 hPa | 0 mm | - | 505 W/m² | - |
| 1777479002 | 14.44° C | 89% | 1012.2 hPa | 0 mm | - | 1144 W/m² | - |
| 1777478702 | 14.44° C | 91% | 1012.4 hPa | 0 mm | - | 449 W/m² | - |
| 1777478403 | 14.44° C | 91% | 1012.3 hPa | 0 mm | - | 404 W/m² | - |
| 1777478102 | 13.89° C | 91% | 1012.4 hPa | 0 mm | - | 331 W/m² | - |
| 1777477802 | 13.33° C | 95% | 1012.4 hPa | 0 mm | - | 584 W/m² | - |
| 1777477502 | 13.33° C | 97% | 1012.6 hPa | 0 mm | - | 967 W/m² | - |
| 1777477202 | 13.89° C | 96% | 1012.3 hPa | 0 mm | - | 364 W/m² | - |
| 1777476902 | 13.33° C | 95% | 1012.7 hPa | 0 mm | - | 1042 W/m² | - |
| 1777476602 | 12.78° C | 99% | 1012.7 hPa | 0 mm | - | 405 W/m² | - |
| 1777476302 | 12.78° C | 99% | 1012.8 hPa | 0 mm | - | 420 W/m² | - |
| 1777476001 | 12.22° C | 99% | 1012.7 hPa | 0 mm | - | 432 W/m² | - |
| 1777475702 | 12.22° C | 99% | 1012.9 hPa | 0 mm | - | 168 W/m² | - |
| 1777475402 | 12.22° C | 99% | 1012.6 hPa | 0 mm | - | 253 W/m² | - |
| 1777475102 | 11.67° C | 99% | 1012.5 hPa | 0 mm | - | 187 W/m² | - |
| 1777474802 | 11.67° C | 99% | 1012.6 hPa | 0 mm | - | 121 W/m² | - |
| 1777474501 | 11.67° C | 99% | 1012.7 hPa | 0 mm | - | 110 W/m² | - |
| 1777474202 | 11.67° C | 99% | 1012.5 hPa | 0 mm | - | 118 W/m² | - |
| 1777473902 | 12.22° C | 99% | 1012.5 hPa | 0 mm | - | 165 W/m² | - |
| 1777473602 | 11.67° C | 99% | 1012.6 hPa | 0 mm | - | 134 W/m² | - |
| 1777473302 | 11.67° C | 99% | 1012.7 hPa | 0 mm | - | 121 W/m² | - |
| 1777473001 | 11.67° C | 97% | 1012.5 hPa | 0 mm | - | 141 W/m² | - |
| 1777472702 | 11.67° C | 99% | 1012.8 hPa | 0 mm | - | 99 W/m² | - |
* Rain latest hour (hover to see other rain measurements)
** Current wind speed in m/s (hover to see current wind gust speed)